contact:dominique.lefevre@mio.osupytheas.fr, maurice.libes@osupytheas.fr, didier.mallarino@osupytheas.fr
Project:EMSO http://www.emso-fr.org/EMSO-France
Depth: 2436.0 m
Title:EMSO Ligure Ouest : Data MII capteur AQUADOPP
Date,Latitude,Longitude,X_East,Y_North,Z_Up,Amplitude_X,Amplitude_Y,Amplitude_Z,Batterie,SoundSpeed,Heading,Pitch,Roll,Pressure,TIS,Speed,Direction
, degrees North, degrees East, m.s-1, m.s-1,m.s-1, 1, 1, 1, Volt, m.s-1, degree, degree, degree, dbar, degree_C, m.s-1, degree
2020-01-15T00:04:03,42.805,6.029,-0.017,0.016,-0.034,104.0,111.0,102.0,13.4,1505.3,328.0,-0.7,1.8,2470.275,13.32,0.023,313.3
2020-01-15T00:07:03,42.805,6.029,0.002,0.031,-0.037,105.0,111.0,102.0,13.4,1505.3,326.5,-0.7,1.8,2470.273,13.33,0.031,3.7
2020-01-15T00:10:03,42.805,6.029,0.016,0.016,-0.026,105.0,110.0,102.0,13.4,1505.3,327.3,-0.7,1.8,2470.252,13.33,0.022,45.0
2020-01-15T00:13:03,42.805,6.029,0.007,0.025,-0.012,105.0,111.0,103.0,13.4,1505.4,325.7,-0.7,1.8,2470.24,13.34,0.025,15.6
2020-01-15T00:16:03,42.805,6.029,0.002,0.036,-0.012,105.0,110.0,103.0,13.4,1505.4,327.2,-0.7,1.8,2470.269,13.34,0.036,3.2
2020-01-15T00:19:03,42.805,6.029,-0.016,0.035,-0.023,105.0,110.0,103.0,13.4,1505.4,323.1,-0.7,1.8,2470.242,13.34,0.038,335.4
2020-01-15T00:22:03,42.805,6.029,-0.001,0.019,-0.001,107.0,109.0,102.0,13.4,1505.4,325.1,-0.7,1.8,2470.215,13.34,0.019,357.0
2020-01-15T00:25:03,42.805,6.029,-0.005,0.017,-0.039,108.0,109.0,103.0,13.4,1505.4,325.5,-0.7,1.8,2470.226,13.34,0.017,343.6
2020-01-15T00:28:03,42.805,6.029,0.0,0.023,-0.039,105.0,112.0,102.0,13.4,1505.4,326.1,-0.7,1.8,2470.221,13.34,0.023,0.0
2020-01-15T00:31:03,42.805,6.029,-0.001,0.0,-0.013,105.0,110.0,103.0,13.4,1505.4,323.0,-0.7,1.8,2470.22,13.34,0.001,270.0
2020-01-15T00:34:03,42.805,6.029,-0.016,0.018,-0.012,105.0,110.0,102.0,13.4,1505.4,327.1,-0.7,1.8,2470.244,13.34,0.024,318.4
2020-01-15T00:37:03,42.805,6.029,0.01,-0.001,-0.033,106.0,110.0,102.0,13.4,1505.4,324.7,-0.7,1.8,2470.223,13.34,0.01,95.7
2020-01-15T00:40:03,42.805,6.029,-0.02,0.027,-0.036,106.0,110.0,103.0,13.4,1505.4,328.2,-0.7,1.8,2470.194,13.34,0.033,323.5
2020-01-15T00:43:03,42.805,6.029,0.007,0.024,0.001,105.0,110.0,102.0,13.4,1505.4,325.6,-0.7,1.8,2470.203,13.34,0.025,16.3
2020-01-15T00:46:03,42.805,6.029,-0.005,0.028,-0.049,105.0,111.0,102.0,13.4,1505.4,323.4,-0.7,1.8,2470.167,13.34,0.028,349.9
2020-01-15T00:49:03,42.805,6.029,-0.011,0.012,-0.019,105.0,112.0,103.0,13.4,1505.4,325.7,-0.7,1.8,2470.191,13.34,0.016,317.5
2020-01-15T00:52:03,42.805,6.029,0.002,0.019,0.007,106.0,110.0,102.0,13.4,1505.4,324.5,-0.7,1.8,2470.2,13.34,0.019,6.0
2020-01-15T00:55:03,42.805,6.029,-0.019,0.021,-0.012,106.0,110.0,102.0,13.4,1505.4,326.8,-0.7,1.8,2470.212,13.34,0.028,317.9
2020-01-15T00:58:03,42.805,6.029,-0.002,0.002,-0.009,106.0,112.0,103.0,13.4,1505.4,327.2,-0.7,1.8,2470.194,13.34,0.002,315.0
2020-01-15T01:04:03,42.805,6.029,0.017,0.021,0.003,107.0,112.0,103.0,13.4,1505.3,324.9,-0.7,1.9,2470.197,13.32,0.027,39.0
2020-01-15T01:07:03,42.805,6.029,0.006,0.033,-0.003,107.0,112.0,104.0,13.4,1505.3,324.8,-0.8,1.8,2470.226,13.33,0.033,10.3
2020-01-15T01:10:03,42.805,6.029,0.006,0.016,-0.034,106.0,111.0,103.0,13.4,1505.3,324.5,-0.7,1.8,2470.219,13.33,0.017,20.6
2020-01-15T01:13:03,42.805,6.029,-0.018,0.03,-0.033,107.0,110.0,103.0,13.4,1505.4,326.7,-0.7,1.8,2470.251,13.34,0.034,329.0
2020-01-15T01:16:03,42.805,6.029,-0.012,0.027,-0.008,105.0,109.0,103.0,13.4,1505.4,327.4,-0.7,1.8,2470.205,13.34,0.029,336.0
2020-01-15T01:19:03,42.805,6.029,0.0,0.021,-0.012,105.0,111.0,102.0,13.4,1505.4,326.3,-0.7,1.8,2470.233,13.34,0.021,0.0
2020-01-15T01:22:03,42.805,6.029,-0.008,0.029,0.002,106.0,111.0,102.0,13.4,1505.4,325.9,-0.7,1.8,2470.201,13.34,0.03,344.6
2020-01-15T01:25:03,42.805,6.029,0.0,0.003,0.007,105.0,111.0,103.0,13.4,1505.4,326.3,-0.7,1.8,2470.224,13.34,0.003,0.0
2020-01-15T01:28:03,42.805,6.029,0.011,0.017,-0.003,106.0,112.0,103.0,13.4,1505.4,323.2,-0.7,1.8,2470.205,13.34,0.02,32.9
2020-01-15T01:31:03,42.805,6.029,-0.002,0.003,-0.004,107.0,110.0,103.0,13.4,1505.4,324.0,-0.7,1.9,2470.204,13.34,0.003,326.3
2020-01-15T01:34:03,42.805,6.029,-0.018,0.002,-0.034,105.0,110.0,103.0,13.4,1505.4,326.8,-0.7,1.8,2470.218,13.34,0.018,276.3
2020-01-15T01:37:03,42.805,6.029,0.005,0.009,-0.015,106.0,110.0,103.0,13.4,1505.4,326.5,-0.7,1.8,2470.231,13.34,0.01,29.1
2020-01-15T01:40:03,42.805,6.029,-0.005,0.006,-0.004,107.0,111.0,103.0,13.4,1505.4,323.6,-0.6,1.8,2470.187,13.34,0.007,320.2
2020-01-15T01:43:03,42.805,6.029,0.02,0.024,-0.011,106.0,111.0,104.0,13.4,1505.4,323.9,-0.7,1.9,2470.202,13.34,0.031,39.8
2020-01-15T01:46:03,42.805,6.029,-0.029,0.015,-0.008,106.0,110.0,103.0,13.4,1505.4,325.8,-0.7,1.9,2470.179,13.34,0.032,297.4
2020-01-15T01:49:03,42.805,6.029,-0.007,0.005,-0.054,107.0,111.0,104.0,13.4,1505.4,325.6,-0.7,1.9,2470.199,13.34,0.008,305.5
2020-01-15T01:52:03,42.805,6.029,0.007,0.017,-0.047,105.0,110.0,103.0,13.4,1505.4,324.3,-0.7,1.8,2470.217,13.34,0.018,22.4
2020-01-15T01:55:03,42.805,6.029,-0.01,0.02,-0.019,106.0,112.0,103.0,13.4,1505.4,327.5,-0.7,1.9,2470.146,13.34,0.022,333.4
2020-01-15T01:58:03,42.805,6.029,-0.008,0.005,-0.024,105.0,110.0,103.0,13.4,1505.4,327.1,-0.7,1.8,2470.158,13.34,0.009,302.0
2020-01-15T02:04:03,42.805,6.029,0.008,0.027,0.036,106.0,111.0,103.0,13.3,1505.3,326.1,-0.8,1.8,2470.222,13.32,0.028,16.5
2020-01-15T02:07:03,42.805,6.029,0.008,0.034,-0.036,105.0,110.0,102.0,13.4,1505.3,326.8,-0.7,1.8,2470.205,13.33,0.034,13.2
2020-01-15T02:10:03,42.805,6.029,-0.007,0.013,-0.009,106.0,110.0,102.0,13.4,1505.3,324.5,-0.7,1.8,2470.173,13.33,0.014,331.7
2020-01-15T02:13:03,42.805,6.029,-0.013,0.035,-0.026,107.0,110.0,102.0,13.4,1505.4,325.0,-0.7,1.8,2470.176,13.34,0.037,339.6
2020-01-15T02:16:03,42.805,6.029,0.013,0.025,-0.01,106.0,111.0,102.0,13.4,1505.4,325.2,-0.7,1.8,2470.193,13.34,0.028,27.5
2020-01-15T02:19:03,42.805,6.029,-0.007,0.027,-0.029,106.0,111.0,103.0,13.4,1505.4,324.4,-0.7,1.8,2470.139,13.34,0.027,345.5
2020-01-15T02:22:03,42.805,6.029,0.007,0.011,-0.033,106.0,111.0,105.0,13.4,1505.4,326.5,-0.7,1.8,2470.163,13.34,0.013,32.5
2020-01-15T02:25:03,42.805,6.029,-0.002,0.02,0.002,105.0,111.0,103.0,13.4,1505.4,325.3,-0.7,1.8,2470.126,13.34,0.02,354.3
2020-01-15T02:28:03,42.805,6.029,-0.005,0.042,-0.007,107.0,111.0,103.0,13.4,1505.4,326.2,-0.7,1.9,2470.134,13.34,0.042,353.2
2020-01-15T02:31:03,42.805,6.029,0.007,0.037,0.016,106.0,110.0,104.0,13.4,1505.4,324.9,-0.7,1.9,2470.154,13.34,0.037,10.7
2020-01-15T02:34:03,42.805,6.029,-0.001,0.024,-0.01,106.0,112.0,102.0,13.4,1505.4,325.9,-0.8,1.8,2470.184,13.34,0.024,357.6
2020-01-15T02:37:03,42.805,6.029,0.017,0.022,-0.009,107.0,111.0,104.0,13.4,1505.4,323.9,-0.7,1.8,2470.096,13.34,0.027,37.7
2020-01-15T02:40:03,42.805,6.029,0.001,0.044,-0.04,106.0,111.0,102.0,13.4,1505.4,327.9,-0.7,1.8,2470.14,13.34,0.044,1.3
2020-01-15T02:43:03,42.805,6.029,0.008,0.026,-0.002,105.0,110.0,102.0,13.4,1505.4,324.1,-0.7,1.8,2470.155,13.34,0.027,17.1
2020-01-15T02:46:03,42.805,6.029,0.018,0.027,0.008,106.0,111.0,103.0,13.4,1505.4,323.8,-0.7,1.8,2470.158,13.34,0.032,33.7
2020-01-15T02:49:03,42.805,6.029,-0.014,0.033,-0.039,106.0,109.0,102.0,13.4,1505.4,324.5,-0.7,1.8,2470.126,13.34,0.035,337.0
2020-01-15T02:52:03,42.805,6.029,-0.014,0.009,-0.021,106.0,111.0,103.0,13.4,1505.4,328.3,-0.7,1.8,2470.159,13.34,0.016,302.7
2020-01-15T02:55:03,42.805,6.029,0.01,0.018,-0.022,106.0,110.0,103.0,13.4,1505.4,323.0,-0.7,1.8,2470.113,13.34,0.02,29.1
2020-01-15T02:58:03,42.805,6.029,0.028,-0.007,-0.033,106.0,111.0,103.0,13.3,1505.4,323.7,-0.7,1.8,2470.148,13.34,0.028,104.0
2020-01-15T03:04:03,42.805,6.029,-0.024,0.021,0.002,105.0,110.0,104.0,13.4,1505.3,323.2,-0.8,1.8,2470.171,13.33,0.031,311.2
2020-01-15T03:07:03,42.805,6.029,0.0,0.004,-0.043,106.0,111.0,103.0,13.4,1505.3,325.4,-0.7,1.9,2470.145,13.33,0.004,0.0
2020-01-15T03:10:03,42.805,6.029,0.012,0.029,-0.035,106.0,109.0,103.0,13.4,1505.4,327.0,-0.7,1.9,2470.119,13.34,0.031,22.5
2020-01-15T03:13:03,42.805,6.029,-0.016,0.0,-0.006,105.0,111.0,104.0,13.4,1505.4,325.6,-0.7,1.8,2470.17,13.34,0.016,270.0
2020-01-15T03:16:03,42.805,6.029,0.001,0.031,-0.003,106.0,110.0,103.0,13.4,1505.4,328.3,-0.7,1.8,2470.099,13.34,0.031,1.8
2020-01-15T03:19:03,42.805,6.029,-0.006,0.008,-0.011,105.0,110.0,102.0,13.4,1505.4,324.2,-0.7,1.8,2470.134,13.34,0.01,323.1
2020-01-15T03:22:03,42.805,6.029,0.012,0.008,0.005,107.0,110.0,102.0,13.4,1505.4,327.8,-0.7,1.9,2470.121,13.34,0.014,56.3
2020-01-15T03:25:03,42.805,6.029,0.006,0.034,-0.013,106.0,109.0,103.0,13.4,1505.4,326.4,-0.8,1.8,2470.128,13.34,0.034,10.0
2020-01-15T03:28:03,42.805,6.029,0.015,0.03,0.013,106.0,110.0,103.0,13.3,1505.4,325.4,-0.7,1.8,2470.146,13.34,0.033,26.6
2020-01-15T03:31:03,42.805,6.029,-0.033,-0.012,-0.042,106.0,111.0,103.0,13.4,1505.4,323.7,-0.7,1.8,2470.149,13.34,0.035,250.0
2020-01-15T03:34:03,42.805,6.029,-0.042,0.032,-0.028,107.0,110.0,102.0,13.4,1505.4,328.2,-0.7,1.9,2470.113,13.34,0.052,307.3
2020-01-15T03:37:03,42.805,6.029,0.011,0.021,-0.03,106.0,111.0,103.0,13.4,1505.4,326.2,-0.7,1.8,2470.145,13.35,0.023,27.6
2020-01-15T03:40:03,42.805,6.029,-0.007,0.003,-0.022,107.0,112.0,102.0,13.4,1505.4,327.1,-0.8,1.8,2470.103,13.35,0.007,293.2
2020-01-15T03:43:03,42.805,6.029,0.01,-0.004,-0.027,107.0,110.0,104.0,13.4,1505.4,323.2,-0.7,1.8,2470.103,13.34,0.01,111.8
2020-01-15T03:46:03,42.805,6.029,-0.004,0.014,-0.032,106.0,110.0,104.0,13.4,1505.4,324.7,-0.7,1.8,2470.073,13.34,0.014,344.1
2020-01-15T03:49:03,42.805,6.029,-0.012,0.017,-0.049,108.0,111.0,102.0,13.4,1505.4,323.6,-0.7,1.8,2470.101,13.34,0.02,324.8
2020-01-15T03:52:03,42.805,6.029,0.008,0.029,-0.011,106.0,111.0,103.0,13.4,1505.4,327.3,-0.7,1.8,2470.082,13.35,0.03,15.4
2020-01-15T03:55:03,42.805,6.029,-0.005,0.022,-0.025,107.0,110.0,103.0,13.4,1505.4,323.3,-0.7,1.8,2470.128,13.35,0.022,347.2
2020-01-15T03:58:03,42.805,6.029,0.013,0.032,0.008,107.0,110.0,103.0,13.3,1505.4,324.7,-0.7,1.8,2470.11,13.35,0.034,22.1
2020-01-15T04:04:03,42.805,6.029,0.01,0.015,0.023,107.0,111.0,103.0,13.4,1505.3,326.2,-0.7,1.8,2470.134,13.33,0.018,33.7
2020-01-15T04:07:03,42.805,6.029,0.012,0.01,-0.003,107.0,109.0,104.0,13.4,1505.4,327.8,-0.7,1.8,2470.121,13.34,0.015,50.2
2020-01-15T04:10:03,42.805,6.029,0.002,0.002,-0.032,106.0,111.0,103.0,13.4,1505.4,326.9,-0.7,1.8,2470.122,13.34,0.002,45.0
2020-01-15T04:13:03,42.805,6.029,0.015,0.031,-0.008,106.0,111.0,104.0,13.4,1505.4,328.0,-0.8,1.8,2470.131,13.34,0.034,25.8
2020-01-15T04:16:03,42.805,6.029,-0.005,0.013,0.003,106.0,111.0,103.0,13.4,1505.4,326.1,-0.7,1.9,2470.132,13.34,0.013,339.0
2020-01-15T04:19:03,42.805,6.029,-0.028,0.024,-0.038,106.0,110.0,103.0,13.4,1505.4,328.0,-0.7,1.8,2470.125,13.34,0.036,310.6
2020-01-15T04:22:03,42.805,6.029,0.009,0.022,-0.022,107.0,110.0,103.0,13.4,1505.4,325.1,-0.7,1.9,2470.124,13.35,0.023,22.2
2020-01-15T04:25:03,42.805,6.029,0.005,0.023,-0.047,106.0,110.0,103.0,13.4,1505.4,325.9,-0.7,1.8,2470.098,13.35,0.023,12.3
2020-01-15T04:28:03,42.805,6.029,0.018,0.01,-0.001,106.0,109.0,105.0,13.4,1505.4,323.3,-0.7,1.9,2470.118,13.35,0.02,60.9
2020-01-15T04:31:03,42.805,6.029,-0.001,0.016,-0.008,107.0,111.0,102.0,13.4,1505.4,324.8,-0.7,1.8,2470.081,13.35,0.016,356.4
2020-01-15T04:34:03,42.805,6.029,-0.011,0.017,-0.046,106.0,112.0,103.0,13.4,1505.4,327.5,-0.7,1.8,2470.105,13.35,0.02,327.1
2020-01-15T04:37:03,42.805,6.029,-0.008,0.028,-0.064,108.0,111.0,103.0,13.4,1505.4,325.2,-0.7,1.8,2470.095,13.35,0.029,344.1
2020-01-15T04:40:03,42.805,6.029,0.002,0.0,-0.005,106.0,111.0,103.0,13.4,1505.4,324.2,-0.7,1.8,2470.097,13.35,0.002,90.0
2020-01-15T04:43:03,42.805,6.029,-0.004,0.026,-0.001,107.0,111.0,102.0,13.4,1505.4,324.5,-0.7,1.8,2470.067,13.35,0.026,351.3
2020-01-15T04:46:03,42.805,6.029,0.033,0.02,0.002,107.0,110.0,103.0,13.4,1505.4,328.8,-0.7,1.9,2470.116,13.35,0.038,58.8
2020-01-15T04:49:03,42.805,6.029,-0.015,0.013,-0.031,104.0,111.0,103.0,13.4,1505.4,324.2,-0.7,1.8,2470.144,13.35,0.019,310.9
2020-01-15T04:52:03,42.805,6.029,0.01,-0.01,0.003,106.0,111.0,102.0,13.4,1505.4,326.7,-0.7,1.8,2470.077,13.35,0.014,135.0
2020-01-15T04:55:03,42.805,6.029,0.0,0.005,-0.011,107.0,111.0,102.0,13.4,1505.4,324.7,-0.7,1.8,2470.073,13.35,0.005,0.0
2020-01-15T04:58:03,42.805,6.029,0.007,0.016,-0.01,107.0,110.0,102.0,13.3,1505.4,326.2,-0.7,1.8,2470.093,13.35,0.017,23.6
2020-01-15T05:04:03,42.805,6.029,0.006,0.015,-0.013,105.0,111.0,102.0,13.4,1505.3,327.9,-0.8,1.8,2470.11,13.33,0.016,21.8
2020-01-15T05:07:03,42.805,6.029,0.029,0.017,0.019,105.0,110.0,101.0,13.4,1505.4,328.8,-0.7,1.8,2470.123,13.34,0.033,59.6
2020-01-15T05:10:03,42.805,6.029,0.005,0.039,-0.005,106.0,110.0,102.0,13.4,1505.4,326.1,-0.7,1.9,2470.1,13.34,0.039,7.3
2020-01-15T05:13:03,42.805,6.029,-0.003,0.016,0.0,106.0,110.0,102.0,13.4,1505.4,324.3,-0.7,1.8,2470.117,13.34,0.016,349.4
2020-01-15T05:16:03,42.805,6.029,0.01,0.011,0.011,105.0,111.0,101.0,13.3,1505.4,325.5,-0.7,1.9,2470.156,13.34,0.014,42.3
2020-01-15T05:19:03,42.805,6.029,0.004,0.025,0.02,107.0,111.0,103.0,13.4,1505.4,325.7,-0.7,1.8,2470.139,13.35,0.025,9.1
2020-01-15T05:22:03,42.805,6.029,0.013,0.022,0.016,106.0,109.0,103.0,13.4,1505.4,323.3,-0.7,1.8,2470.071,13.35,0.025,30.6
2020-01-15T05:25:03,42.805,6.029,-0.001,0.015,-0.027,106.0,111.0,103.0,13.4,1505.4,328.2,-0.7,1.8,2470.131,13.35,0.015,356.2
2020-01-15T05:28:03,42.805,6.029,-0.003,0.043,-0.011,104.0,110.0,105.0,13.4,1505.4,327.2,-0.7,1.8,2470.114,13.35,0.043,356.0
2020-01-15T05:31:03,42.805,6.029,0.019,0.004,-0.009,106.0,111.0,103.0,13.3,1505.4,327.6,-0.7,1.8,2470.157,13.35,0.019,78.1
2020-01-15T05:34:03,42.805,6.029,0.006,0.018,-0.003,105.0,111.0,103.0,13.4,1505.4,326.2,-0.7,1.9,2470.07,13.35,0.018,18.4
2020-01-15T05:37:03,42.805,6.029,0.012,0.011,-0.036,106.0,111.0,103.0,13.4,1505.4,328.7,-0.7,1.9,2470.106,13.35,0.016,47.5
2020-01-15T05:43:03,42.805,6.029,-0.006,0.004,-0.047,106.0,111.0,102.0,13.4,1505.3,324.7,-0.8,1.8,2470.124,13.33,0.007,303.7
2020-01-15T05:46:03,42.805,6.029,-0.004,0.007,0.0,106.0,109.0,102.0,13.4,1505.4,328.4,-0.7,1.8,2470.127,13.34,0.008,330.3
2020-01-15T05:49:03,42.805,6.029,-0.031,0.012,-0.034,107.0,111.0,103.0,13.4,1505.4,323.4,-0.7,1.9,2470.141,13.34,0.033,291.2
2020-01-15T05:52:03,42.805,6.029,0.006,0.014,-0.037,106.0,111.0,102.0,13.4,1505.4,328.3,-0.7,1.8,2470.15,13.34,0.015,23.2
2020-01-15T05:55:03,42.805,6.029,-0.013,0.041,0.002,105.0,110.0,102.0,13.3,1505.4,323.9,-0.7,1.8,2470.132,13.34,0.043,342.4
2020-01-15T05:58:03,42.805,6.029,0.005,0.013,-0.025,105.0,110.0,102.0,13.4,1505.4,327.2,-0.7,1.8,2470.18,13.34,0.013,21.0
2020-01-15T06:04:03,42.805,6.029,0.025,0.026,0.012,105.0,111.0,104.0,13.4,1505.3,326.2,-0.7,1.8,2470.178,13.33,0.036,43.9
2020-01-15T06:07:03,42.805,6.029,-0.022,0.02,-0.027,105.0,111.0,102.0,13.4,1505.3,323.3,-0.7,1.9,2470.192,13.33,0.029,312.3
2020-01-15T06:10:03,42.805,6.029,0.025,0.013,-0.006,105.0,110.0,103.0,13.4,1505.4,326.0,-0.7,1.8,2470.155,13.34,0.028,62.5
2020-01-15T06:13:03,42.805,6.029,0.027,0.032,-0.035,106.0,110.0,102.0,13.3,1505.4,327.0,-0.7,1.8,2470.153,13.34,0.041,40.2
2020-01-15T06:16:03,42.805,6.029,0.0,0.035,-0.007,105.0,110.0,103.0,13.4,1505.4,328.2,-0.7,1.8,2470.164,13.34,0.035,0.0
2020-01-15T06:19:03,42.805,6.029,-0.005,0.005,-0.032,105.0,111.0,103.0,13.4,1505.4,324.7,-0.7,1.8,2470.164,13.34,0.007,315.0
2020-01-15T06:22:03,42.805,6.029,0.013,0.026,0.008,105.0,110.0,102.0,13.4,1505.4,326.4,-0.7,1.8,2470.195,13.34,0.029,26.6
2020-01-15T06:25:03,42.805,6.029,-0.016,0.012,-0.038,104.0,111.0,104.0,13.4,1505.4,325.2,-0.7,1.8,2470.151,13.34,0.02,306.9
2020-01-15T06:28:03,42.805,6.029,0.028,0.002,-0.031,106.0,112.0,102.0,13.4,1505.4,326.0,-0.7,1.8,2470.138,13.35,0.028,85.9
2020-01-15T06:31:03,42.805,6.029,0.004,0.021,-0.033,106.0,111.0,103.0,13.4,1505.4,326.4,-0.7,1.8,2470.123,13.35,0.021,10.8
2020-01-15T06:34:03,42.805,6.029,-0.008,0.024,-0.012,107.0,111.0,103.0,13.4,1505.4,328.2,-0.7,1.8,2470.136,13.35,0.025,341.6
2020-01-15T06:37:03,42.805,6.029,0.001,0.011,-0.017,106.0,110.0,103.0,13.4,1505.4,323.8,-0.7,1.8,2470.21,13.35,0.011,5.2
2020-01-15T06:40:03,42.805,6.029,-0.012,0.005,-0.018,107.0,110.0,103.0,13.4,1505.4,327.1,-0.7,1.9,2470.154,13.35,0.013,292.6
2020-01-15T06:43:03,42.805,6.029,0.01,-0.019,-0.039,107.0,111.0,104.0,13.3,1505.4,324.5,-0.7,1.8,2470.186,13.35,0.021,152.2
2020-01-15T06:46:03,42.805,6.029,0.0,0.033,-0.018,106.0,112.0,103.0,13.3,1505.4,324.4,-0.7,1.8,2470.172,13.35,0.033,0.0
2020-01-15T06:49:03,42.805,6.029,-0.004,0.019,-0.019,106.0,111.0,102.0,13.4,1505.4,326.2,-0.7,1.9,2470.176,13.35,0.019,348.1
2020-01-15T06:52:03,42.805,6.029,0.02,0.019,0.006,105.0,111.0,103.0,13.4,1505.4,326.4,-0.7,1.8,2470.144,13.35,0.027,46.5
2020-01-15T06:55:03,42.805,6.029,0.0,0.006,-0.037,107.0,111.0,103.0,13.4,1505.4,327.9,-0.7,1.8,2470.198,13.35,0.006,0.0
2020-01-15T06:58:03,42.805,6.029,0.021,0.017,-0.034,105.0,110.0,103.0,13.4,1505.4,326.2,-0.7,1.8,2470.14,13.35,0.027,51.0
2020-01-15T07:04:03,42.805,6.029,0.01,0.011,-0.011,106.0,111.0,105.0,13.3,1505.3,326.3,-0.8,1.8,2470.221,13.33,0.014,42.3
2020-01-15T07:07:03,42.805,6.029,-0.005,0.02,-0.02,106.0,111.0,103.0,13.3,1505.4,325.6,-0.7,1.9,2470.212,13.34,0.02,346.0
2020-01-15T07:10:03,42.805,6.029,-0.007,0.015,-0.018,107.0,112.0,103.0,13.4,1505.4,325.1,-0.7,1.9,2470.216,13.34,0.016,335.0
2020-01-15T07:13:03,42.805,6.029,-0.003,0.02,-0.046,106.0,111.0,103.0,13.4,1505.4,327.6,-0.7,1.8,2470.223,13.34,0.02,351.5
2020-01-15T07:16:03,42.805,6.029,0.008,0.01,-0.024,107.0,111.0,103.0,13.4,1505.4,326.8,-0.7,1.8,2470.256,13.34,0.012,38.7
2020-01-15T07:19:03,42.805,6.029,0.01,-0.005,-0.039,104.0,112.0,104.0,13.4,1505.4,328.0,-0.7,1.8,2470.241,13.34,0.011,116.6
2020-01-15T07:22:03,42.805,6.029,0.01,0.014,-0.01,106.0,111.0,103.0,13.4,1505.4,327.0,-0.7,1.8,2470.271,13.34,0.017,35.5
2020-01-15T07:25:03,42.805,6.029,-0.018,0.023,-0.046,105.0,111.0,102.0,13.4,1505.4,327.6,-0.7,1.9,2470.253,13.34,0.029,322.0
2020-01-15T07:28:03,42.805,6.029,-0.002,0.013,-0.032,106.0,110.0,102.0,13.4,1505.4,326.2,-0.7,1.8,2470.212,13.34,0.013,351.3
2020-01-15T07:31:03,42.805,6.029,-0.004,0.018,-0.023,106.0,111.0,104.0,13.4,1505.4,327.5,-0.7,1.8,2470.291,13.35,0.018,347.5
2020-01-15T07:34:03,42.805,6.029,-0.007,0.016,-0.006,105.0,111.0,102.0,13.3,1505.4,325.4,-0.7,1.8,2470.244,13.35,0.017,336.4
2020-01-15T07:37:03,42.805,6.029,0.0,0.024,-0.039,104.0,110.0,102.0,13.4,1505.4,328.2,-0.7,1.8,2470.26,13.35,0.024,0.0
2020-01-15T07:40:03,42.805,6.029,0.006,0.006,-0.012,105.0,110.0,103.0,13.4,1505.4,323.3,-0.7,1.8,2470.241,13.34,0.008,45.0
2020-01-15T07:43:03,42.805,6.029,0.013,0.031,-0.019,105.0,109.0,102.0,13.3,1505.4,327.2,-0.7,1.8,2470.248,13.34,0.033,22.7
2020-01-15T07:46:03,42.805,6.029,-0.012,0.012,-0.031,106.0,109.0,102.0,13.4,1505.4,325.7,-0.7,1.9,2470.245,13.35,0.016,315.0
2020-01-15T07:49:03,42.805,6.029,0.005,0.007,-0.033,105.0,110.0,102.0,13.3,1505.4,325.7,-0.7,1.9,2470.282,13.35,0.008,35.5
2020-01-15T07:52:03,42.805,6.029,-0.006,0.025,-0.002,107.0,111.0,102.0,13.4,1505.4,325.9,-0.7,1.8,2470.256,13.35,0.025,346.5
2020-01-15T07:55:03,42.805,6.029,0.01,0.019,-0.023,104.0,110.0,103.0,13.3,1505.4,325.6,-0.7,1.8,2470.262,13.35,0.021,27.8
2020-01-15T07:58:03,42.805,6.029,-0.006,0.002,-0.007,105.0,111.0,101.0,13.3,1505.4,327.0,-0.7,1.9,2470.307,13.35,0.006,288.4
2020-01-15T08:04:03,42.805,6.029,-0.002,0.004,0.001,106.0,110.0,102.0,13.3,1505.3,326.5,-0.7,1.9,2470.311,13.33,0.004,333.4
2020-01-15T08:07:03,42.805,6.029,-0.024,0.021,-0.027,106.0,110.0,103.0,13.4,1505.3,325.6,-0.7,1.8,2470.29,13.33,0.031,311.2
2020-01-15T08:10:03,42.805,6.029,0.029,0.012,-0.008,106.0,110.0,102.0,13.4,1505.4,325.5,-0.7,1.8,2470.308,13.34,0.031,67.5
2020-01-15T08:13:03,42.805,6.029,-0.007,0.005,-0.069,105.0,109.0,102.0,13.3,1505.4,327.7,-0.7,1.8,2470.297,13.34,0.008,305.5
2020-01-15T08:16:03,42.805,6.029,-0.011,0.014,-0.026,105.0,110.0,103.0,13.3,1505.4,325.9,-0.7,1.8,2470.285,13.34,0.017,321.8
2020-01-15T08:19:03,42.805,6.029,-0.011,0.01,-0.035,107.0,110.0,103.0,13.3,1505.4,327.8,-0.7,1.8,2470.327,13.34,0.014,312.3
2020-01-15T08:22:03,42.805,6.029,-0.005,0.017,-0.011,106.0,110.0,103.0,13.3,1505.4,328.5,-0.7,1.8,2470.303,13.34,0.017,343.6
2020-01-15T08:25:03,42.805,6.029,-0.003,0.018,-0.017,106.0,110.0,103.0,13.3,1505.4,327.5,-0.7,1.8,2470.313,13.35,0.018,350.5
2020-01-15T08:28:03,42.805,6.029,0.0,0.018,-0.004,106.0,111.0,103.0,13.3,1505.4,328.1,-0.7,1.8,2470.322,13.35,0.018,0.0
2020-01-15T08:31:03,42.805,6.029,0.0,0.031,-0.021,105.0,110.0,102.0,13.4,1505.4,325.4,-0.7,1.8,2470.341,13.35,0.03,0.0
2020-01-15T08:34:03,42.805,6.029,0.008,0.015,-0.016,106.0,109.0,102.0,13.4,1505.4,323.8,-0.7,1.9,2470.33,13.35,0.017,28.1
2020-01-15T08:37:03,42.805,6.029,0.02,0.012,0.041,105.0,110.0,103.0,13.4,1505.4,326.3,-0.7,1.8,2470.317,13.35,0.023,59.0
2020-01-15T08:40:03,42.805,6.029,-0.018,0.017,-0.034,107.0,110.0,102.0,13.4,1505.4,327.6,-0.7,1.8,2470.346,13.35,0.024,313.4
2020-01-15T08:43:03,42.805,6.029,-0.02,0.012,-0.04,105.0,109.0,104.0,13.4,1505.4,324.3,-0.7,1.8,2470.315,13.35,0.023,301.0
2020-01-15T08:46:03,42.805,6.029,-0.001,0.002,-0.022,106.0,109.0,104.0,13.4,1505.4,326.7,-0.7,1.8,2470.293,13.35,0.002,333.4
2020-01-15T08:49:03,42.805,6.029,0.01,0.023,-0.025,107.0,108.0,103.0,13.3,1505.4,326.3,-0.7,1.8,2470.327,13.35,0.025,23.5
2020-01-15T08:52:03,42.805,6.029,-0.011,0.015,-0.053,106.0,108.0,101.0,13.3,1505.4,327.5,-0.8,1.8,2470.328,13.35,0.018,323.7
2020-01-15T08:55:03,42.805,6.029,0.01,0.006,-0.016,108.0,109.0,102.0,13.4,1505.4,325.1,-0.7,1.8,2470.323,13.35,0.011,59.0
2020-01-15T08:58:03,42.805,6.029,-0.007,0.005,-0.011,104.0,109.0,102.0,13.3,1505.4,325.1,-0.7,1.9,2470.354,13.35,0.008,305.5
2020-01-15T09:04:03,42.805,6.029,-0.022,0.023,-0.004,104.0,109.0,103.0,13.3,1505.3,328.5,-0.7,1.8,2470.384,13.33,0.031,316.3
2020-01-15T09:07:03,42.805,6.029,0.001,0.017,0.005,104.0,108.0,103.0,13.3,1505.4,326.6,-0.7,1.9,2470.395,13.34,0.017,3.4
2020-01-15T09:10:03,42.805,6.029,-0.014,0.004,-0.004,106.0,109.0,101.0,13.4,1505.4,323.7,-0.7,1.8,2470.379,13.34,0.014,285.9
2020-01-15T09:13:03,42.805,6.029,0.007,0.007,-0.034,105.0,109.0,101.0,13.4,1505.4,324.9,-0.7,1.9,2470.35,13.35,0.009,45.0
2020-01-15T09:16:03,42.805,6.029,-0.002,0.025,-0.031,105.0,109.0,103.0,13.3,1505.4,326.3,-0.7,1.9,2470.389,13.35,0.025,355.4
2020-01-15T09:19:03,42.805,6.029,0.01,0.02,0.02,105.0,109.0,102.0,13.4,1505.4,322.8,-0.7,1.8,2470.391,13.35,0.022,26.6
2020-01-15T09:22:03,42.805,6.029,0.006,0.02,-0.014,104.0,109.0,101.0,13.4,1505.4,327.5,-0.7,1.8,2470.391,13.35,0.02,16.7
2020-01-15T09:25:03,42.805,6.029,-0.013,0.008,-0.033,106.0,109.0,103.0,13.4,1505.4,324.6,-0.7,1.9,2470.377,13.35,0.015,301.6
2020-01-15T09:28:03,42.805,6.029,0.007,0.009,-0.031,104.0,110.0,103.0,13.3,1505.4,328.4,-0.7,1.8,2470.416,13.35,0.011,37.9
2020-01-15T09:31:03,42.805,6.029,-0.005,0.007,0.005,106.0,108.0,102.0,13.3,1505.4,327.0,-0.7,1.8,2470.365,13.35,0.008,324.5
2020-01-15T09:34:03,42.805,6.029,0.0,0.001,-0.031,104.0,108.0,103.0,13.4,1505.4,326.9,-0.7,1.8,2470.365,13.35,0.001,0.0
2020-01-15T09:37:03,42.805,6.029,-0.002,0.004,0.002,104.0,110.0,102.0,13.4,1505.4,326.9,-0.7,1.8,2470.358,13.35,0.004,333.4
2020-01-15T09:40:03,42.805,6.029,0.007,0.012,-0.059,106.0,108.0,102.0,13.4,1505.4,323.7,-0.7,1.8,2470.37,13.35,0.013,30.3
2020-01-15T09:43:03,42.805,6.029,-0.01,0.012,-0.015,107.0,109.0,101.0,13.4,1505.4,324.7,-0.7,1.8,2470.393,13.35,0.015,320.2
2020-01-15T09:46:03,42.805,6.029,0.007,0.006,-0.022,104.0,108.0,101.0,13.4,1505.4,323.2,-0.7,1.8,2470.377,13.35,0.009,49.4
2020-01-15T09:49:03,42.805,6.029,0.009,0.02,0.006,105.0,108.0,102.0,13.4,1505.4,324.9,-0.7,1.9,2470.356,13.35,0.021,24.2
2020-01-15T09:52:03,42.805,6.029,0.013,0.014,-0.035,103.0,109.0,102.0,13.4,1505.4,323.5,-0.7,1.8,2470.409,13.35,0.019,42.9
2020-01-15T09:55:03,42.805,6.029,0.003,0.015,-0.016,104.0,108.0,101.0,13.4,1505.4,326.9,-0.7,1.8,2470.394,13.35,0.015,11.3
2020-01-15T09:58:03,42.805,6.029,0.011,0.018,-0.036,104.0,110.0,100.0,13.4,1505.4,328.6,-0.7,1.8,2470.399,13.35,0.021,31.4
2020-01-15T10:04:03,42.805,6.029,0.005,0.015,-0.031,104.0,110.0,103.0,13.4,1505.3,324.9,-0.8,1.8,2470.415,13.33,0.015,18.4